TimeEST,TemperatureF,Dew PointF,Humidity,Sea Level PressureIn,VisibilityMPH,Wind Direction,Wind SpeedMPH,Gust SpeedMPH,PrecipitationIn,Events,Conditions,WindDirDegrees,DateUTC
12:15 AM,27.0,22.1,82,29.87,10.0,NE,18.4,-,N/A,,Overcast,40,2014-01-21 05:15:00
12:35 AM,26.2,21.6,82,29.87,7.0,NE,18.4,24.2,N/A,,Overcast,50,2014-01-21 05:35:00
12:55 AM,25.2,20.3,82,29.88,7.0,NE,17.3,20.7,N/A,,Overcast,50,2014-01-21 05:55:00
1:15 AM,24.1,19.4,82,29.87,7.0,ENE,15.0,24.2,N/A,Snow,Light Snow,60,2014-01-21 06:15:00
1:35 AM,23.7,19.6,84,29.86,3.0,NE,17.3,21.9,N/A,Snow,Light Snow,50,2014-01-21 06:35:00
1:55 AM,22.8,18.9,85,29.88,3.0,NE,16.1,-,N/A,Snow,Light Snow,50,2014-01-21 06:55:00
2:15 AM,22.3,18.5,85,29.88,1.5,NE,16.1,23.0,N/A,Snow,Light Snow,40,2014-01-21 07:15:00
2:35 AM,21.7,18.3,87,29.89,1.0,NE,25.3,29.9,N/A,Snow,Light Snow,40,2014-01-21 07:35:00
2:55 AM,19.2,15.8,87,29.91,1.2,NE,20.7,25.3,N/A,Snow,Light Snow,40,2014-01-21 07:55:00
3:15 AM,17.1,13.3,85,29.92,1.8,NE,18.4,31.1,N/A,Snow,Light Snow,40,2014-01-21 08:15:00
3:35 AM,16.0,11.8,84,29.93,2.5,NE,23.0,28.8,N/A,Snow,Light Snow,50,2014-01-21 08:35:00
3:55 AM,15.1,10.4,82,29.95,2.5,NE,20.7,28.8,N/A,Snow,Light Snow,50,2014-01-21 08:55:00
4:15 AM,14.2,9.5,82,29.96,1.5,NE,16.1,27.6,N/A,Snow,Light Snow,40,2014-01-21 09:15:00
4:35 AM,13.5,9.0,82,29.97,1.2,NE,20.7,31.1,N/A,Snow,Light Snow,40,2014-01-21 09:35:00
4:55 AM,12.6,8.1,82,29.98,1.8,NE,23.0,32.2,N/A,Snow,Light Snow,40,2014-01-21 09:55:00
5:15 AM,12.0,7.2,81,29.99,1.8,NE,23.0,33.4,N/A,Snow,Light Snow,40,2014-01-21 10:15:00
5:35 AM,10.8,5.5,79,30.00,2.0,NE,20.7,32.2,N/A,Snow,Light Snow,40,2014-01-21 10:35:00
5:55 AM,10.6,5.4,79,30.01,3.0,NNE,20.7,28.8,N/A,Snow,Light Snow,20,2014-01-21 10:55:00
6:15 AM,10.2,4.8,79,30.02,2.5,NNE,21.9,26.5,N/A,,Haze,20,2014-01-21 11:15:00
6:35 AM,9.5,3.2,76,30.03,4.0,NNE,19.6,34.5,N/A,,Haze,30,2014-01-21 11:35:00
6:55 AM,8.8,2.3,75,30.06,5.0,NNE,16.1,27.6,N/A,,Haze,30,2014-01-21 11:55:00
7:15 AM,8.6,2.8,77,30.06,4.0,NNE,23.0,32.2,N/A,Snow,Light Snow,20,2014-01-21 12:15:00
7:35 AM,8.1,1.4,74,30.08,4.0,NNE,16.1,29.9,N/A,,Haze,30,2014-01-21 12:35:00
7:55 AM,7.7,1.4,75,30.09,10.0,NNE,20.7,24.2,N/A,,Mostly Cloudy,20,2014-01-21 12:55:00
8:15 AM,7.2,0.1,73,30.10,10.0,NNE,16.1,24.2,N/A,,Scattered Clouds,20,2014-01-21 13:15:00
8:35 AM,6.8,-1.1,70,30.11,10.0,NNE,17.3,-,N/A,,Clear,20,2014-01-21 13:35:00
8:55 AM,6.6,-2.6,66,30.12,10.0,North,18.4,23.0,N/A,,Clear,10,2014-01-21 13:55:00
9:15 AM,6.8,-3.1,64,30.13,10.0,NNE,20.7,-,N/A,,Clear,20,2014-01-21 14:15:00
9:35 AM,7.2,-4.2,60,30.13,10.0,NNE,17.3,23.0,N/A,,Clear,20,2014-01-21 14:35:00
9:55 AM,7.5,-5.1,56,30.14,7.0,NNE,16.1,21.9,N/A,,Clear,20,2014-01-21 14:55:00
10:15 AM,8.1,-5.6,54,30.14,10.0,NNE,18.4,25.3,N/A,,Clear,20,2014-01-21 15:15:00
10:35 AM,8.2,-5.6,53,30.15,10.0,NNE,13.8,23.0,N/A,,Clear,30,2014-01-21 15:35:00
10:55 AM,8.6,-5.8,52,30.16,7.0,NE,19.6,26.5,N/A,,Clear,40,2014-01-21 15:55:00
11:15 AM,9.0,-6.0,51,30.16,10.0,NE,21.9,26.5,N/A,,Clear,40,2014-01-21 16:15:00
11:35 AM,9.3,-6.0,50,30.16,10.0,NE,16.1,20.7,N/A,,Clear,40,2014-01-21 16:35:00
11:55 AM,9.7,-6.3,48,30.16,10.0,NNE,16.1,23.0,N/A,,Clear,20,2014-01-21 16:55:00
12:15 PM,10.0,-6.9,46,30.16,10.0,NNE,17.3,23.0,N/A,,Clear,30,2014-01-21 17:15:00
12:35 PM,10.4,-6.0,48,30.16,7.0,NNE,20.7,24.2,N/A,,Clear,20,2014-01-21 17:35:00
12:55 PM,10.2,-5.3,50,30.15,10.0,North,23.0,-,N/A,,Clear,10,2014-01-21 17:55:00
1:15 PM,10.4,-4.9,50,30.15,10.0,NNE,11.5,-,N/A,,Clear,20,2014-01-21 18:15:00
1:35 PM,10.8,-6.3,46,30.14,10.0,NNE,16.1,19.6,N/A,,Clear,30,2014-01-21 18:35:00
1:55 PM,10.8,-6.5,46,30.14,10.0,North,15.0,20.7,N/A,,Clear,10,2014-01-21 18:55:00
2:15 PM,11.1,-5.4,47,30.15,10.0,North,17.3,-,N/A,,Clear,10,2014-01-21 19:15:00
2:35 PM,11.3,-5.8,46,30.14,10.0,North,11.5,-,N/A,,Clear,360,2014-01-21 19:35:00
2:55 PM,11.3,-6.9,44,30.14,10.0,North,15.0,-,N/A,,Clear,10,2014-01-21 19:55:00
3:15 PM,11.3,-6.7,44,30.15,10.0,North,9.2,17.3,N/A,,Clear,360,2014-01-21 20:15:00
3:35 PM,11.5,-6.9,44,30.15,10.0,NNW,11.5,-,N/A,,Clear,340,2014-01-21 20:35:00
3:55 PM,11.3,-7.6,43,30.16,10.0,North,13.8,18.4,N/A,,Clear,350,2014-01-21 20:55:00
4:15 PM,11.1,-7.2,44,30.17,10.0,North,10.4,17.3,N/A,,Clear,360,2014-01-21 21:15:00
4:35 PM,10.8,-7.1,45,30.18,10.0,North,10.4,17.3,N/A,,Clear,350,2014-01-21 21:35:00
4:55 PM,10.4,-6.9,46,30.18,10.0,North,9.2,-,N/A,,Clear,350,2014-01-21 21:55:00
5:15 PM,9.9,-6.7,47,30.19,10.0,North,8.1,-,N/A,,Clear,360,2014-01-21 22:15:00
5:35 PM,9.3,-7.1,48,30.20,10.0,North,5.8,-,N/A,,Clear,350,2014-01-21 22:35:00
5:55 PM,8.8,-7.2,48,30.20,10.0,North,4.6,-,N/A,,Clear,350,2014-01-21 22:55:00
6:15 PM,7.9,-7.1,51,30.20,10.0,North,3.5,-,N/A,,Clear,360,2014-01-21 23:15:00
6:35 PM,6.1,-6.9,55,30.20,10.0,Calm,Calm,-,N/A,,Clear,0,2014-01-21 23:35:00
6:55 PM,5.5,-6.5,58,30.20,10.0,Calm,Calm,-,N/A,,Clear,0,2014-01-21 23:55:00
7:15 PM,5.0,-6.5,59,30.20,10.0,Calm,Calm,-,N/A,,Clear,0,2014-01-22 00:15:00
7:35 PM,3.7,-6.3,63,30.20,10.0,Calm,Calm,-,N/A,,Clear,0,2014-01-22 00:35:00
7:55 PM,2.3,-6.7,66,30.20,10.0,West,3.5,-,N/A,,Clear,280,2014-01-22 00:55:00
8:15 PM,-0.8,-8.7,69,30.20,10.0,Calm,Calm,-,N/A,,Clear,0,2014-01-22 01:15:00
8:35 PM,-1.1,-8.1,72,30.19,10.0,Calm,Calm,-,N/A,,Clear,0,2014-01-22 01:35:00
8:55 PM,-0.6,-7.2,73,30.19,10.0,Calm,Calm,-,N/A,,Clear,0,2014-01-22 01:55:00
9:15 PM,-0.6,-7.4,73,30.19,10.0,Calm,Calm,-,N/A,,Clear,0,2014-01-22 02:15:00
9:35 PM,-1.3,-7.6,75,30.19,10.0,Calm,Calm,-,N/A,,Clear,0,2014-01-22 02:35:00
9:55 PM,-1.7,-7.4,77,30.19,10.0,Calm,Calm,-,N/A,,Clear,0,2014-01-22 02:55:00
10:15 PM,-1.8,-7.4,77,30.19,10.0,Calm,Calm,-,N/A,,Clear,0,2014-01-22 03:15:00
10:35 PM,-2.0,-7.2,78,30.18,10.0,Calm,Calm,-,N/A,,Clear,0,2014-01-22 03:35:00
10:55 PM,-4.4,-9.6,78,30.19,10.0,Calm,Calm,-,N/A,,Clear,0,2014-01-22 03:55:00
11:15 PM,-4.0,-8.9,80,30.18,10.0,Calm,Calm,-,N/A,,Clear,0,2014-01-22 04:15:00
11:35 PM,-4.5,-9.6,79,30.19,10.0,Calm,Calm,-,N/A,,Clear,0,2014-01-22 04:35:00
11:55 PM,-4.2,-9.4,78,30.19,10.0,Calm,Calm,-,N/A,,Clear,0,2014-01-22 04:55:00